Edinburg, TX

1:32 AM CDT on April 23, 2018 (GMT -0500)
Edinburg

Weather History for KEBG - April, 2013

Change the Weather History Date:

Friday, April 26, 2013

  Actual Average (KMFE) Record (KMFE)
Temperature  
Mean Temperature 64 °F -  
Max Temperature 66 °F 86 °F 107 °F (1984)
Min Temperature 62 °F 66 °F 58 °F (2001)
Degree Days  
Heating Degree Days 2    
Growing Degree Days 14 (Base 50)    
Moisture  
Dew Point 61 °F    
Average Humidity 92    
Maximum Humidity 93    
Minimum Humidity 91    
Precipitation  
Precipitation 0.01 in - - ()
Sea Level Pressure  
Sea Level Pressure 30.11 in    
Wind  
Wind Speed 3 mph (South)    
Max Wind Speed 7 mph    
Max Gust Speed -    
Visibility 1 miles    
Events Rain    
Averages and records for this station are not official NWS values.
T = Trace of Precipitation, MM = Missing Value Source: NWS Daily Summary

Daily Weather History Graph

Daily Weather History Graph

Search for Another Location

Airport or City:

Astronomy

Apr. 26, 2013 Rise Set
Actual Time 6:58 AM CDT 8:02 PM CDT
Civil Twilight 6:34 AM CDT 8:26 PM CDT
Nautical Twilight 6:05 AM CDT 8:55 PM CDT
Astronomical Twilight 5:36 AM CDT 9:24 PM CDT
Moon 9:18 PM CDT (4/26) 7:32 AM CDT (4/26)
Length of Visible Light 13h 51m
Length of Day
13h 03m
Full, 99% of the Moon is Illuminated
Apr 26
Full
May 2
Last Quarter
May 9
New
May 17
First Quarter
May 24
Full

Hourly Weather History & Observations

Time (CDT) Temp. Dew Point Humidity Pressure Visibility Wind Dir Wind Speed Gust Speed Precip Events Conditions
12:15 AM 62.8 °F 60.3 °F 91% 30.18 in 3.0 mi NW 3.5 mph - N/A   Overcast
12:35 AM 62.6 °F 59.9 °F 91% 30.17 in 3.0 mi NW 4.6 mph - N/A   Overcast
12:55 AM 62.6 °F 59.9 °F 91% 30.17 in 3.0 mi Calm Calm - N/A   Overcast
1:15 AM 62.6 °F 59.9 °F 91% 30.17 in 2.5 mi Calm Calm - N/A   Overcast
1:35 AM 62.8 °F 60.1 °F 91% 30.16 in 2.5 mi West 4.6 mph - N/A   Overcast
1:55 AM 62.6 °F 59.9 °F 91% 30.15 in 2.5 mi NW 4.6 mph - N/A   Overcast
2:15 AM 62.6 °F 59.9 °F 91% 30.15 in 2.0 mi West 4.6 mph - N/A   Overcast
2:35 AM 62.6 °F 60.1 °F 91% 30.14 in 2.0 mi NNW 3.5 mph - N/A   Overcast
2:55 AM 62.6 °F 60.1 °F 91% 30.12 in 2.0 mi Calm Calm - N/A   Overcast
3:15 AM 62.6 °F 59.9 °F 91% 30.11 in 1.8 mi ENE 3.5 mph - N/A   Overcast
3:35 AM 62.6 °F 60.1 °F 91% 30.09 in 1.5 mi ESE 4.6 mph - N/A   Overcast
3:55 AM 62.6 °F 60.1 °F 91% 30.08 in 1.2 mi ESE 6.9 mph - N/A   Overcast
4:15 AM 62.8 °F 60.3 °F 91% 30.08 in 0.8 mi SSE 4.6 mph - N/A Rain Light Rain
4:35 AM 62.8 °F 60.4 °F 92% 30.06 in 0.8 mi SE 5.8 mph - N/A Rain Rain
4:55 AM 63.0 °F 60.8 °F 93% 30.07 in 0.5 mi SE 5.8 mph - N/A Rain Rain
5:15 AM 63.3 °F 61.0 °F 92% 30.07 in 0.5 mi SSE 3.5 mph - N/A Rain Rain
5:35 AM 63.5 °F 61.0 °F 91% 30.07 in 0.2 mi SE 3.5 mph - N/A Rain Light Rain
5:55 AM 63.5 °F 61.2 °F 92% 30.08 in 0.2 mi SW 3.5 mph - N/A Rain Heavy Rain
6:15 AM 63.9 °F 61.7 °F 93% 30.07 in 0.2 mi Calm Calm - N/A Rain Light Rain
6:55 AM 63.9 °F 61.7 °F 93% 30.09 in 0.5 mi Calm Calm - N/A Rain Rain
7:15 AM 64.8 °F 62.6 °F 93% 30.10 in 0.5 mi SSW 3.5 mph - 0.01 in Rain Light Rain
7:35 AM 64.4 °F 61.9 °F 92% 30.11 in 0.2 mi Calm Calm - 0.01 in Rain Rain
7:55 AM 64.4 °F 61.9 °F 92% 30.11 in 0.2 mi Calm Calm - 0.01 in Rain Heavy Rain
8:15 AM 64.4 °F 62.1 °F 92% 30.12 in 0.2 mi Calm Calm - N/A Rain Rain
8:35 AM 64.8 °F 62.6 °F 93% 30.12 in 0.2 mi Calm Calm - N/A Rain Light Rain
8:55 AM 64.8 °F 62.6 °F 93% 30.12 in 0.2 mi Calm Calm - N/A Rain Rain
9:15 AM 65.3 °F 63.0 °F 92% 30.12 in 0.5 mi Calm Calm - N/A Rain Light Rain
9:35 AM 65.5 °F 63.3 °F 93% 30.12 in 2.0 mi South 3.5 mph - N/A   Overcast
9:55 AM 65.8 °F 63.5 °F 92% 30.12 in 2.0 mi Calm Calm - N/A   Overcast
10:15 AM 66.6 °F 64.4 °F 93% 30.12 in 3.0 mi Calm Calm - N/A   Overcast